When you browse on this site, cookies collect data to enhance your experience and personalize the content and advertising you see.
Visit our Privacy Policy to learn more. By continuing to use the site, you agree to this use of cookies and data.
  • In Germany
  • List of Countries
  • For 7 days
  • Water Temperature
  • Satellite Maps
  • Weather Map
  • Weather Widgets
  • user-avatar
    Login

    Hourly Weather Kalgoorlie

    Today, 25 April, Thursday

    Time Temperature Precipitation Wind Pressure Humidity
    00:00 +19°C° 0 mm 5 mps 737 mmHg 52%
    01:00 +17°C° 0 mm 5 mps 737 mmHg 55%
    02:00 +17°C° 0 mm 4 mps 737 mmHg 59%
    03:00 +17°C° 0 mm 4 mps 737 mmHg 64%
    04:00 +15°C° 0 mm 4 mps 737 mmHg 69%
    05:00 +15°C° 0 mm 4 mps 737 mmHg 73%
    06:00 +15°C° 0 mm 4 mps 737 mmHg 73%
    07:00 +17°C° 0 mm 4 mps 738 mmHg 73%
    08:00 +17°C° 0 mm 4 mps 738 mmHg 72%
    09:00 +19°C° 0 mm 4 mps 738 mmHg 63%
    10:00 +21°C° 0 mm 4 mps 738 mmHg 55%
    11:00 +22°C° 0 mm 4 mps 738 mmHg 46%
    12:00 +23°C° 0 mm 5 mps 737 mmHg 41%
    13:00 +25°C° 0 mm 5 mps 737 mmHg 37%
    14:00 +26°C° 0 mm 5 mps 737 mmHg 33%
    15:00 +26°C° 0 mm 5 mps 736 mmHg 32%
    16:00 +25°C° 0 mm 5 mps 736 mmHg 32%
    17:00 +25°C° 0 mm 5 mps 736 mmHg 31%
    18:00 +23°C° 0 mm 5 mps 737 mmHg 34%
    19:00 +22°C° 0 mm 5 mps 737 mmHg 36%
    20:00 +21°C° 0 mm 5 mps 737 mmHg 39%
    21:00 +20°C° 0 mm 5 mps 738 mmHg 42%
    22:00 +20°C° 0 mm 5 mps 738 mmHg 45%
    23:00 +19°C° 0 mm 5 mps 738 mmHg 48%

    Tomorrow, 26 April, Friday

    Time Temperature Precipitation Wind Pressure Humidity
    00:00 +17°C° 0 mm 5 mps 738 mmHg 51%
    01:00 +17°C° 0 mm 5 mps 738 mmHg 54%
    02:00 +16°C° 0 mm 5 mps 738 mmHg 57%
    03:00 +15°C° 0 mm 5 mps 738 mmHg 65%
    04:00 +15°C° 0 mm 5 mps 738 mmHg 74%
    05:00 +14°C° 0 mm 5 mps 738 mmHg 82%
    06:00 +14°C° 0 mm 6 mps 739 mmHg 81%
    07:00 +14°C° 0 mm 6 mps 739 mmHg 81%
    08:00 +14°C° 0 mm 7 mps 739 mmHg 80%
    09:00 +16°C° 0 mm 7 mps 739 mmHg 69%
    10:00 +18°C° 0 mm 7 mps 739 mmHg 58%
    11:00 +20°C° 0 mm 6 mps 739 mmHg 47%
    12:00 +21°C° 0 mm 6 mps 739 mmHg 43%
    13:00 +22°C° 0 mm 6 mps 738 mmHg 38%
    14:00 +23°C° 0 mm 6 mps 737 mmHg 34%
    15:00 +23°C° 0 mm 6 mps 737 mmHg 35%
    16:00 +22°C° 0 mm 6 mps 737 mmHg 36%
    17:00 +22°C° 0 mm 6 mps 737 mmHg 38%
    18:00 +21°C° 0 mm 6 mps 738 mmHg 42%
    19:00 +20°C° 0 mm 6 mps 738 mmHg 47%
    20:00 +19°C° 0 mm 6 mps 739 mmHg 52%
    21:00 +17°C° 0 mm 6 mps 739 mmHg 57%
    22:00 +16°C° 0 mm 6 mps 739 mmHg 61%
    23:00 +15°C° 0 mm 6 mps 739 mmHg 66%

    Day after tomorrow, 27 April, Saturday

    Time Temperature Precipitation Wind Pressure Humidity
    00:00 +15°C° 0 mm 6 mps 739 mmHg 68%
    01:00 +14°C° 0 mm 5 mps 738 mmHg 71%
    02:00 +14°C° 0 mm 5 mps 738 mmHg 73%
    03:00 +13°C° 0 mm 5 mps 738 mmHg 75%
    04:00 +13°C° 0 mm 4 mps 738 mmHg 78%
    05:00 +13°C° 0 mm 4 mps 738 mmHg 80%
    06:00 +13°C° 0 mm 4 mps 738 mmHg 77%
    07:00 +14°C° 0 mm 5 mps 739 mmHg 74%
    08:00 +14°C° 0 mm 6 mps 739 mmHg 72%
    09:00 +16°C° 0 mm 5 mps 739 mmHg 63%
    10:00 +17°C° 0 mm 5 mps 739 mmHg 55%
    11:00 +20°C° 0 mm 5 mps 739 mmHg 47%
    12:00 +21°C° 0 mm 5 mps 738 mmHg 42%
    13:00 +22°C° 0 mm 4 mps 738 mmHg 38%
    14:00 +23°C° 0 mm 4 mps 737 mmHg 33%
    15:00 +23°C° 0 mm 4 mps 737 mmHg 34%
    16:00 +23°C° 0 mm 4 mps 737 mmHg 34%
    17:00 +23°C° 0 mm 4 mps 736 mmHg 34%
    18:00 +22°C° 0 mm 5 mps 737 mmHg 37%
    19:00 +21°C° 0 mm 5 mps 737 mmHg 40%
    20:00 +20°C° 0 mm 5 mps 737 mmHg 43%
    21:00 +19°C° 0 mm 4 mps 737 mmHg 45%
    22:00 +18°C° 0 mm 4 mps 737 mmHg 48%
    23:00 +18°C° 0 mm 4 mps 737 mmHg 50%

    28 April, Sunday

    Time Temperature Precipitation Wind Pressure Humidity
    00:00 +17°C° 0 mm 4 mps 737 mmHg 51%
    01:00 +17°C° 0 mm 4 mps 737 mmHg 53%
    02:00 +15°C° 0 mm 4 mps 736 mmHg 54%
    03:00 +15°C° 0 mm 4 mps 736 mmHg 55%
    04:00 +14°C° 0 mm 4 mps 736 mmHg 56%
    05:00 +14°C° 0 mm 3 mps 736 mmHg 58%
    06:00 +15°C° 0 mm 4 mps 736 mmHg 54%
    07:00 +17°C° 0 mm 4 mps 737 mmHg 51%
    08:00 +16°C° 0 mm 5 mps 737 mmHg 47%
    09:00 +19°C° 0 mm 5 mps 737 mmHg 42%
    10:00 +21°C° 0 mm 5 mps 737 mmHg 36%
    11:00 +23°C° 0 mm 5 mps 736 mmHg 31%
    12:00 +25°C° 0 mm 5 mps 735 mmHg 28%
    13:00 +26°C° 0 mm 5 mps 735 mmHg 25%
    14:00 +27°C° 0 mm 5 mps 734 mmHg 22%
    15:00 +27°C° 0 mm 4 mps 734 mmHg 23%
    16:00 +26°C° 0 mm 3 mps 733 mmHg 24%
    17:00 +26°C° 0 mm 3 mps 733 mmHg 24%
    18:00 +25°C° 0 mm 3 mps 734 mmHg 26%
    19:00 +24°C° 0 mm 2 mps 734 mmHg 27%
    20:00 +23°C° 0 mm 2 mps 734 mmHg 29%
    21:00 +21°C° 0 mm 3 mps 734 mmHg 30%
    22:00 +21°C° 0 mm 3 mps 734 mmHg 31%
    23:00 +21°C° 0 mm 4 mps 733 mmHg 33%

    29 April, Monday

    Time Temperature Precipitation Wind Pressure Humidity
    00:00 +20°C° 0 mm 4 mps 733 mmHg 34%
    01:00 +20°C° 0 mm 4 mps 733 mmHg 35%
    02:00 +19°C° 0 mm 5 mps 732 mmHg 37%
    03:00 +19°C° 0 mm 4 mps 732 mmHg 37%
    04:00 +18°C° 0 mm 4 mps 732 mmHg 37%
    05:00 +18°C° 0 mm 4 mps 732 mmHg 38%
    06:00 +19°C° 0 mm 4 mps 732 mmHg 36%
    07:00 +20°C° 0 mm 5 mps 732 mmHg 34%
    08:00 +20°C° 0 mm 5 mps 733 mmHg 32%
    09:00 +23°C° 0 mm 6 mps 732 mmHg 29%
    10:00 +26°C° 0 mm 6 mps 732 mmHg 26%
    11:00 +28°C° 0 mm 7 mps 732 mmHg 23%
    12:00 +29°C° 0 mm 7 mps 731 mmHg 23%
    13:00 +29°C° 0 mm 6 mps 730 mmHg 23%
    14:00 +30°C° 0 mm 6 mps 730 mmHg 24%
    15:00 +29°C° 0 mm 5 mps 730 mmHg 25%
    16:00 +28°C° 0 mm 4 mps 729 mmHg 26%
    17:00 +28°C° 0 mm 3 mps 729 mmHg 27%
    18:00 +27°C° 0 mm 3 mps 730 mmHg 28%
    19:00 +26°C° 0 mm 3 mps 730 mmHg 28%
    20:00 +25°C° 0 mm 3 mps 730 mmHg 29%
    21:00 +25°C° 0 mm 3 mps 730 mmHg 29%
    22:00 +24°C° 0 mm 3 mps 730 mmHg 29%
    23:00 +24°C° 0 mm 3 mps 730 mmHg 28%

    30 April, Tuesday

    Time Temperature Precipitation Wind Pressure Humidity
    00:00 +21°C° 0 mm 4 mps 730 mmHg 39%
    01:00 +20°C° 0 mm 6 mps 730 mmHg 49%
    02:00 +18°C° 0 mm 7 mps 730 mmHg 59%
    03:00 +17°C° 0 mm 7 mps 730 mmHg 65%
    04:00 +17°C° 0 mm 8 mps 731 mmHg 70%
    05:00 +16°C° 0 mm 8 mps 731 mmHg 76%
    06:00 +16°C° 0 mm 8 mps 732 mmHg 74%
    07:00 +16°C° 0 mm 8 mps 732 mmHg 73%
    08:00 +16°C° 0 mm 8 mps 733 mmHg 72%
    09:00 +16°C° 0 mm 8 mps 733 mmHg 68%
    10:00 +17°C° 0 mm 8 mps 733 mmHg 64%
    11:00 +17°C° 0 mm 8 mps 733 mmHg 59%
    12:00 +18°C° 0 mm 7 mps 733 mmHg 54%
    13:00 +20°C° 0 mm 7 mps 733 mmHg 49%
    14:00 +20°C° 0 mm 7 mps 733 mmHg 43%
    15:00 +20°C° 0 mm 7 mps 733 mmHg 42%
    16:00 +20°C° 0 mm 7 mps 734 mmHg 41%
    17:00 +18°C° 0 mm 7 mps 734 mmHg 40%
    18:00 +17°C° 0 mm 7 mps 735 mmHg 44%
    19:00 +16°C° 0 mm 7 mps 736 mmHg 47%
    20:00 +15°C° 0 mm 7 mps 736 mmHg 51%
    21:00 +14°C° 0 mm 7 mps 737 mmHg 54%
    22:00 +12°C° 0 mm 7 mps 737 mmHg 57%
    23:00 +11°C° 0 mm 7 mps 737 mmHg 60%
    Show more